Current weather by "City, St" or "zip code"  
 

Current Conditions: Alexander City, Thomas C Russell Field Airport, AL

Fair


45.0 F

Last Updated on Apr 23 2021, 4:55 am CDT
Humidity: 78%
Wind Speed: N 0.0 mph
Barometer 30.12 in
Dewpoint: 38.3 F
Visibility: 10.00 mi
Precip: --
Heat Index: NA
Wind Chill: NA
Current conditions at:

Alexander City, Thomas C Russell Field Airport, AL (KALX)

Lat: 32.91472 Lon: 85.96278

Local Radar Image active severe weather and emergency alerts image image weather storm and storm spotter reports image weather observation monitoring service image
Local
Radar
Active
Alerts
Storm Reports Obs
Monitoring

Sign-up For Email & Text Message Weather Alert Notification Services



Advertise Here

Observation History for Alexander City, Thomas C Russell Field Airport, AL


Time Wind
(mph)
Vis
(mi)
Weather Precip (in) Temperature (F) Relative
Humidity
Wind
Chill
(F)
Heat
Index
(F)
Pressure
Air Dwpt altimeter
(in)
sea level
(mb)
Rmks
4:55 am CDT N 0.0 10.00 Fair -- 45.0 38.3 78% NA NA 30.12 M
3:55 am CDT N 0.0 10.00 Fair -- 44.0 40.1 86% NA NA 30.13 M
2:55 am CDT N 0.0 10.00 Fair -- 44.0 41.0 90% NA NA 30.14 M
1:55 am CDT N 0.0 10.00 Fair -- 42.0 40.3 93% NA NA 30.15 M
12:55 am CDT N 0.0 10.00 Fair -- 44.0 41.2 89% NA NA 30.16 M
11:55 pm CDT N 0.0 10.00 Fair -- 44.0 41.9 91% NA NA 30.17 M
10:55 pm CDT N 0.0 10.00 Fair -- 46.0 41.0 83% NA NA 30.16 M
9:55 pm CDT N 0.0 10.00 Fair -- 47.0 40.1 77% NA NA 30.16 M
8:55 pm CDT N 0.0 10.00 Fair -- 49.0 39.9 72% NA NA 30.15 M
7:55 pm CDT N 0.0 10.00 Fair -- 53.0 37.8 56% NA NA 30.15 M
6:55 pm CDT NW 5.8 10.00 Fair -- 61.0 28.8 29% 61 NA 30.13 M
5:55 pm CDT NW 5.8 10.00 Fair -- 64.0 27.9 26% NA NA 30.13 M
4:55 pm CDT SW 3.5 10.00 Fair -- 64.0 26.2 24% NA NA 30.14 M
3:55 pm CDT NW 6.9 10.00 Fair -- 64.0 27.0 24% NA NA 30.15 M
2:55 pm CDT W 9.2 10.00 Fair -- 63.0 27.5 26% 62 NA 30.18 M
1:55 pm CDT NE 8.1 10.00 Fair -- 61.0 26.2 26% 60 NA 30.20 M
12:55 pm CDT N 6.9 10.00 Fair -- 60.0 24.8 26% 59 NA 30.23 M
11:55 am CDT N 0.0 10.00 Fair -- 57.0 23.4 28% NA NA 30.25 M
10:55 am CDT E 5.8 10.00 Fair -- 56.0 26.6 33% 55 NA 30.27 M
9:55 am CDT NE 5.8 10.00 Fair -- 52.0 26.4 37% 50 NA 30.27 M
8:55 am CDT NE 6.9 10.00 Fair -- 49.0 27.7 44% 46 NA 30.26 M
7:55 am CDT N 3.5 10.00 Fair -- 42.0 33.3 71% NA NA 30.25 M
6:55 am CDT N 0.0 10.00 Fair -- 35.0 32.4 91% NA NA 30.23 M
5:55 am CDT N 0.0 10.00 Fair -- 33.0 32.4 96% NA NA 30.21 M

Regional Weather Observation


Talladega Municipal Airport, AL (KASN)

NULL
43.0 F

St Clair County Airport, AL (KPLR)

Overcast
46.0 F

Alabaster, Shelby County Airport, AL (KEET)

Overcast
49.0 F

Alexander City, Thomas C Russell Field Airport, AL (KALX)

Fair
45.0 F

Bessemer Airport, AL (KEKY)

Overcast
50.0 F

Anniston Metro Airport, AL (KANB)

Fair
33.0 F

Advertise Here


Advertise Here